K4VI Weather Reports


Display with metric or nautical units.
time (UTC)temp
F
wind
direction
speed
MPH
gust
MPH
rain 1hr
in
rain 24hr
in
rain mn
in
humidity
%
barometer
mb
20260507130220 33 314 8.0 14.0 0.00 0.28 0.00 51 1034.5
20260507125503 32 313 7.0 14.0 0.00 0.28 0.00 56 1034.4
20260507125003 32 312 6.0 12.0 0.00 0.28 0.00 55 1034.6
20260507124718 32 312 6.0 12.0 0.00 0.28 0.00 54 1034.5
20260507124003 31 311 5.0 10.0 0.00 0.28 0.00 54 1034.4
20260507123504 31 308 6.0 12.0 0.00 0.28 0.00 56 1034.4
20260507123003 31 303 6.0 12.0 0.00 0.28 0.00 57 1034.4
20260507122503 30 304 6.0 12.0 0.00 0.28 0.00 58 1034.4
20260507122003 30 309 6.0 12.0 0.00 0.28 0.00 60 1034.3
20260507121721 30 310 7.0 12.0 0.00 0.28 0.00 59 1034.3
20260507121003 28 307 5.0 10.0 0.00 0.28 0.00 62 1034.3
20260507120717 28 312 3.0 10.0 0.00 0.28 0.00 63 1034.4
20260507120004 27 334 2.0 4.0 0.00 0.28 0.00 65 1034.4
20260507115503 27 318 2.0 4.0 0.00 0.28 0.00 65 1034.4
20260507115221 28 309 2.0 4.0 0.00 0.28 0.00 63 1034.4
20260507114503 28 304 3.0 7.0 0.00 0.28 0.00 61 1034.5
20260507114003 29 302 4.0 10.0 0.00 0.28 0.00 59 1034.4
20260507113503 29 306 5.0 11.0 0.00 0.28 0.00 58 1034.4
20260507113218 29 304 5.0 11.0 0.00 0.28 0.00 59 1034.3
20260507112503 29 306 5.0 11.0 0.00 0.28 0.00 58 1034.3
20260507112003 29 302 5.0 12.0 0.00 0.28 0.00 58 1034.2
20260507111717 29 300 5.0 12.0 0.00 0.28 0.00 59 1034.2
20260507111004 29 304 4.0 14.0 0.00 0.28 0.00 61 1034.0
20260507110503 28 299 5.0 14.0 0.00 0.28 0.00 62 1034.0
20260507110003 29 305 5.0 10.0 0.00 0.28 0.00 62 1034.0
20260507105503 28 307 5.0 10.0 0.00 0.28 0.00 63 1034.0
20260507105217 28 300 3.0 10.0 0.00 0.28 0.00 64 1034.2
20260507104720 28 298 2.0 10.0 0.00 0.28 0.00 63 1034.1
20260507104003 29 308 4.0 12.0 0.00 0.28 0.00 63 1034.1
20260507103503 30 311 7.0 16.0 0.00 0.28 0.00 61 1034.1
20260507103003 29 315 8.0 16.0 0.00 0.28 0.00 60 1034.0
20260507102503 29 311 5.0 14.0 0.00 0.28 0.00 62 1034.1
20260507102003 28 287 3.0 11.0 0.00 0.28 0.00 66 1034.2
20260507101503 29 285 4.0 11.0 0.00 0.28 0.00 63 1034.2
20260507101003 29 298 5.0 12.0 0.00 0.28 0.00 64 1034.1
20260507100503 29 304 6.0 14.0 0.00 0.28 0.00 63 1034.0
20260507100003 29 299 6.0 14.0 0.00 0.28 0.00 63 1033.8
20260507095503 29 296 6.0 13.0 0.00 0.28 0.00 63 1033.8
20260507095004 29 305 7.0 14.0 0.00 0.28 0.00 62 1033.9
20260507094503 30 313 9.0 16.0 0.00 0.28 0.00 62 1033.9
20260507094003 30 316 10.0 16.0 0.00 0.28 0.00 63 1034.0
20260507093503 29 316 9.0 14.0 0.00 0.28 0.00 64 1034.0
20260507093003 29 312 7.0 12.0 0.00 0.28 0.00 66 1033.9
20260507092503 29 306 6.0 14.0 0.00 0.28 0.00 67 1033.9
20260507092004 29 307 7.0 15.0 0.00 0.28 0.00 68 1034.0
20260507091503 29 312 9.0 16.0 0.00 0.28 0.00 67 1034.0
20260507091003 29 315 9.0 18.0 0.00 0.28 0.00 67 1034.0
20260507090503 29 314 10.0 20.0 0.00 0.28 0.00 67 1034.0
20260507090004 29 313 11.0 20.0 0.00 0.28 0.00 69 1034.0
20260507085503 29 315 12.0 22.0 0.00 0.28 0.00 68 1033.9
20260507085003 29 316 12.0 22.0 0.00 0.28 0.00 69 1034.0
20260507084503 28 314 12.0 18.0 0.00 0.28 0.00 69 1034.0
20260507084003 29 313 13.0 19.0 0.00 0.28 0.00 70 1034.1
20260507083717 29 312 12.0 19.0 0.00 0.28 0.00 70 1034.0
20260507083004 28 314 11.0 20.0 0.00 0.28 0.00 72 1034.1
20260507082503 28 314 10.0 20.0 0.00 0.28 0.00 71 1034.0
20260507082221 28 314 9.0 18.0 0.00 0.28 0.00 71 1034.0
20260507081503 28 314 8.0 18.0 0.00 0.28 0.00 72 1034.1
20260507081217 29 313 8.0 18.0 0.00 0.28 0.00 71 1034.2
20260507080503 29 313 10.0 19.0 0.00 0.28 0.00 71 1034.2
20260507080003 29 315 11.0 19.0 0.00 0.28 0.00 70 1034.0
20260507075503 29 315 12.0 21.0 0.00 0.28 0.00 71 1033.9
20260507075003 29 317 12.0 21.0 0.00 0.28 0.00 71 1033.7
20260507074503 29 318 12.0 21.0 0.00 0.28 0.00 71 1033.8
20260507074004 29 316 12.0 19.0 0.00 0.28 0.00 71 1033.7
20260507073503 29 315 12.0 19.0 0.00 0.28 0.00 72 1033.8
20260507073003 29 316 12.0 19.0 0.00 0.28 0.00 72 1033.7
20260507072503 29 316 12.0 22.0 0.00 0.28 0.00 72 1033.8
20260507072003 29 317 13.0 22.0 0.00 0.28 0.00 73 1033.9
20260507071720 29 315 13.0 22.0 0.00 0.28 0.00 72 1034.0
20260507071003 29 313 12.0 18.0 0.00 0.28 0.00 75 1034.0
20260507070503 29 315 12.0 18.0 0.00 0.28 0.00 75 1034.0
20260507070006 29 317 12.0 18.0 0.00 0.28 0.00 76 1034.1
20260507065503 29 318 12.0 20.0 0.00 0.28 0.00 77 1034.2
20260507065003 29 316 12.0 20.0 0.00 0.28 0.00 77 1034.1
20260507064504 29 315 11.0 18.0 0.00 0.28 0.00 78 1034.2
20260507064220 29 313 11.0 18.0 0.00 0.28 0.00 78 1034.1
20260507063503 29 311 10.0 20.0 0.00 0.28 0.00 79 1034.2
20260507063221 29 309 10.0 20.0 0.00 0.28 0.00 78 1034.3
20260507062504 29 307 11.0 19.0 0.00 0.28 0.00 81 1034.1
20260507062003 29 311 10.0 19.0 0.00 0.28 0.00 80 1034.2
20260507061503 29 309 9.0 21.0 0.00 0.28 0.00 82 1033.9
20260507061218 29 306 9.0 21.0 0.00 0.28 0.00 81 1034.0
20260507060503 29 302 11.0 19.0 0.00 0.28 0.00 81 1034.0
20260507060004 29 304 11.0 19.0 0.00 0.28 0.00 81 1033.8
20260507055503 29 303 10.0 21.0 0.00 0.28 0.28 82 1033.7
20260507055003 29 305 11.0 21.0 0.00 0.28 0.28 82 1033.5
20260507054503 29 301 11.0 21.0 0.00 0.28 0.28 82 1033.4
20260507054004 28 297 11.0 20.0 0.00 0.28 0.28 82 1033.3
20260507053503 29 301 12.0 20.0 0.00 0.28 0.28 83 1033.3
20260507053004 28 308 11.0 22.0 0.00 0.28 0.28 83 1033.3
20260507052504 28 307 10.0 22.0 0.00 0.28 0.28 83 1033.3
20260507052003 28 305 11.0 23.0 0.00 0.28 0.28 84 1033.2
20260507051503 29 303 10.0 23.0 0.00 0.28 0.28 84 1033.2
20260507051004 28 301 9.0 19.0 0.00 0.28 0.28 85 1033.1
20260507050503 28 305 9.0 16.0 0.00 0.28 0.28 85 1033.2
20260507050003 28 305 8.0 16.0 0.00 0.28 0.28 86 1033.2
20260507045503 28 305 8.0 19.0 0.00 0.28 0.28 87 1033.1
20260507045003 29 302 8.0 19.0 0.00 0.28 0.28 86 1033.3
20260507044503 28 300 9.0 18.0 0.00 0.28 0.28 87 1033.3
20260507044221 29 299 9.0 18.0 0.00 0.28 0.28 87 1033.2
20260507043503 28 298 7.0 15.0 0.00 0.28 0.28 88 1033.0
20260507043003 28 293 6.0 13.0 0.00 0.28 0.28 88 1033.2
20260507042503 28 293 6.0 18.0 0.00 0.28 0.28 88 1033.1
20260507042003 28 287 6.0 18.0 0.00 0.28 0.28 88 1033.1
20260507041503 28 296 7.0 18.0 0.00 0.28 0.28 88 1033.1
20260507041003 28 301 6.0 18.0 0.00 0.28 0.28 89 1033.2
20260507040503 28 303 5.0 13.0 0.00 0.28 0.28 90 1033.1
20260507040003 27 313 4.0 13.0 0.00 0.28 0.28 91 1033.1
20260507035503 26 307 2.0 5.0 0.00 0.28 0.28 91 1033.0
20260507035003 26 318 1.0 4.0 0.00 0.28 0.28 91 1032.9
20260507034503 26 292 1.0 3.0 0.00 0.28 0.28 91 1033.1
20260507034217 26 266 1.0 3.0 0.00 0.28 0.28 91 1033.0
20260507033503 27 248 2.0 7.0 0.00 0.28 0.28 91 1033.1
20260507033003 27 261 2.0 7.0 0.00 0.28 0.28 91 1033.0
20260507032503 27 257 2.0 4.0 0.00 0.28 0.28 91 1032.9
20260507032219 27 264 2.0 4.0 0.00 0.28 0.28 91 1032.9
20260507031503 27 292 4.0 9.0 0.00 0.28 0.28 91 1032.9
20260507031003 27 301 3.0 9.0 0.00 0.28 0.28 91 1032.9
20260507030503 27 312 2.0 9.0 0.00 0.28 0.28 91 1032.9
20260507030221 27 316 2.0 5.0 0.00 0.28 0.28 91 1032.9
20260507025719 27 304 2.0 4.0 0.00 0.28 0.28 91 1032.9
20260507025003 27 292 2.0 4.0 0.00 0.28 0.28 91 1032.7
20260507024503 27 301 3.0 6.0 0.00 0.28 0.28 91 1032.7
20260507024004 27 310 3.0 6.0 0.00 0.28 0.28 91 1032.7
20260507023503 26 310 2.0 4.0 0.00 0.28 0.28 91 1032.6
20260507023003 27 307 3.0 6.0 0.00 0.28 0.28 91 1032.5
20260507022717 27 308 3.0 6.0 0.00 0.28 0.28 91 1032.5
20260507022003 27 305 3.0 6.0 0.00 0.28 0.28 91 1032.4
20260507021503 27 306 4.0 8.0 0.00 0.28 0.28 91 1032.3
20260507021003 27 307 4.0 8.0 0.00 0.28 0.28 92 1032.3
20260507020718 27 303 3.0 7.0 0.00 0.28 0.28 92 1032.3
20260507020003 27 275 3.0 6.0 0.00 0.28 0.28 92 1032.2
20260507015503 27 271 3.0 6.0 0.01 0.28 0.28 92 1032.2
20260507015003 27 275 3.0 6.0 0.01 0.28 0.28 92 1032.2
20260507014503 27 281 3.0 6.0 0.01 0.28 0.28 92 1032.1
20260507014003 28 288 3.0 6.0 0.01 0.28 0.28 92 1032.1
20260507013503 28 297 3.0 8.0 0.01 0.28 0.28 92 1032.1
20260507013003 28 289 3.0 8.0 0.01 0.28 0.28 92 1032.1
20260507012503 28 283 3.0 7.0 0.02 0.28 0.28 92 1032.1
20260507012003 28 275 4.0 7.0 0.02 0.28 0.28 92 1032.1
20260507011718 29 272 4.0 7.0 0.02 0.28 0.28 92 1032.0
20260507011003 30 270 3.0 7.0 0.03 0.28 0.28 92 1031.9
20260507010503 30 286 2.0 7.0 0.03 0.28 0.28 93 1031.9
20260507010003 31 23 1.0 3.0 0.03 0.28 0.28 93 1031.8
20260507005503 31 109 1.0 2.0 0.02 0.27 0.27 94 1031.6
20260507005003 30 107 1.0 3.0 0.02 0.27 0.27 94 1031.6
20260507004721 30 106 2.0 4.0 0.02 0.27 0.27 94 1031.6
20260507004003 30 104 2.0 4.0 0.02 0.28 0.27 93 1031.5
20260507003717 30 106 2.0 4.0 0.03 0.28 0.27 94 1031.4
20260507003003 29 111 2.0 4.0 0.03 0.28 0.27 94 1031.4
20260507002503 30 108 2.0 4.0 0.02 0.27 0.26 94 1031.4
20260507002221 30 107 1.0 4.0 0.02 0.27 0.26 93 1031.4
20260507001503 29 104 2.0 3.0 0.03 0.27 0.26 93 1031.4
20260507001003 29 106 2.0 4.0 0.02 0.26 0.25 93 1031.4
20260507000503 29 111 3.0 6.0 0.02 0.26 0.25 93 1031.4
20260507000004 29 109 2.0 6.0 0.02 0.26 0.25 93 1031.4
20260506235503 29 94 1.0 4.0 0.02 0.26 0.25 93 1031.4
20260506235003 29 83 1.0 3.0 0.02 0.26 0.25 93 1031.4
20260506234503 29 84 2.0 3.0 0.03 0.26 0.25 93 1031.3
20260506234219 29 90 2.0 4.0 0.03 0.26 0.25 93 1031.3
20260506233503 29 109 2.0 4.0 0.02 0.25 0.24 93 1031.3
20260506233003 29 114 1.0 4.0 0.02 0.25 0.24 94 1031.2
20260506232503 29 114 2.0 4.0 0.03 0.25 0.24 93 1031.2
20260506232003 29 112 2.0 4.0 0.03 0.25 0.24 94 1031.1
20260506231503 29 111 2.0 6.0 0.02 0.25 0.23 94 1031.1
20260506231003 29 108 1.0 6.0 0.03 0.25 0.23 93 1031.1
20260506230503 29 99 1.0 4.0 0.03 0.25 0.23 93 1031.0
20260506230003 28 98 1.0 3.0 0.04 0.25 0.23 94 1031.1
20260506225503 28 100 1.0 3.0 0.04 0.25 0.23 94 1031.0
20260506225003 28 110 2.0 6.0 0.05 0.25 0.23 94 1031.0
20260506224503 28 113 3.0 8.0 0.05 0.24 0.22 94 1030.9
20260506224003 28 113 2.0 8.0 0.05 0.24 0.22 94 1030.7
20260506223503 28 118 1.0 6.0 0.06 0.24 0.22 94 1030.8
20260506223003 28 118 3.0 6.0 0.07 0.24 0.22 94 1030.9
20260506222503 28 115 4.0 8.0 0.06 0.23 0.21 94 1030.8
20260506222003 28 115 4.0 8.0 0.07 0.23 0.21 94 1030.8
20260506221504 29 113 4.0 8.0 0.08 0.24 0.21 94 1030.6
20260506221219 29 113 4.0 8.0 0.08 0.24 0.21 94 1030.7
20260506220721 29 110 4.0 8.0 0.08 0.23 0.20 93 1030.7
20260506220003 29 112 3.0 7.0 0.08 0.22 0.19 93 1030.6
20260506215503 29 113 3.0 7.0 0.09 0.22 0.19 93 1030.6
20260506215003 29 113 4.0 7.0 0.09 0.21 0.18 93 1030.6
20260506214503 29 114 4.0 8.0 0.08 0.20 0.17 94 1030.7
20260506214003 29 113 4.0 8.0 0.09 0.20 0.17 94 1030.6
20260506213503 29 111 4.0 8.0 0.09 0.19 0.16 93 1030.6
20260506213217 29 111 3.0 8.0 0.09 0.19 0.16 93 1030.6
20260506212503 29 97 2.0 6.0 0.08 0.19 0.15 93 1030.7
20260506212003 29 108 3.0 9.0 0.08 0.18 0.14 93 1030.7
20260506211721 29 108 3.0 9.0 0.08 0.18 0.14 93 1030.7
20260506211003 29 104 3.0 8.0 0.08 0.17 0.13 93 1030.7
20260506210503 29 111 3.0 8.0 0.07 0.16 0.12 93 1030.6
20260506210004 29 110 3.0 7.0 0.06 0.15 0.11 93 1030.5
20260506205503 29 102 3.0 9.0 0.06 0.14 0.10 93 1030.5
20260506205003 28 96 3.0 9.0 0.05 0.13 0.09 93 1030.4
20260506204503 28 96 2.0 6.0 0.06 0.13 0.09 93 1030.4
20260506204003 28 104 2.0 7.0 0.05 0.12 0.08 93 1030.5
20260506203503 28 102 2.0 7.0 0.04 0.11 0.07 93 1030.5
20260506203003 28 98 3.0 7.0 0.05 0.11 0.07 93 1030.5
20260506202503 27 95 2.0 9.0 0.05 0.11 0.07 93 1030.6
20260506202003 27 101 2.0 9.0 0.04 0.10 0.06 93 1030.5
20260506201721 27 103 2.0 6.0 0.04 0.10 0.06 93 1030.6
20260506201003 27 95 2.0 7.0 0.04 0.09 0.05 93 1030.6
20260506200504 26 91 2.0 7.0 0.04 0.09 0.05 93 1030.2
20260506200220 26 89 2.0 8.0 0.04 0.09 0.05 93 1030.1
20260506195503 26 92 3.0 8.0 0.03 0.08 0.04 93 1030.2
20260506195003 25 99 2.0 6.0 0.03 0.08 0.04 93 1030.3
20260506194503 25 95 3.0 8.0 0.02 0.07 0.03 93 1030.3
20260506194003 25 87 3.0 8.0 0.02 0.07 0.03 93 1030.3
20260506193720 25 88 2.0 8.0 0.02 0.07 0.03 93 1030.2
20260506193003 25 95 2.0 8.0 0.02 0.06 0.02 93 1030.1
20260506192503 25 94 2.0 8.0 0.02 0.06 0.02 93 1030.4
20260506192003 25 97 2.0 8.0 0.02 0.06 0.02 93 1030.1
20260506191503 25 92 3.0 11.0 0.02 0.06 0.02 93 1030.0
20260506191003 25 89 3.0 11.0 0.01 0.05 0.01 93 1029.9
20260506190718 25 88 3.0 11.0 0.01 0.05 0.01 93 1029.8
20260506190004 25 89 3.0 8.0 0.01 0.05 0.01 93 1029.7
20260506185503 25 87 3.0 8.0 0.01 0.05 0.01 93 1029.7
20260506185217 25 90 3.0 10.0 0.01 0.05 0.01 93 1029.8
20260506184503 26 101 3.0 10.0 0.01 0.05 0.01 93 1030.0
20260506184003 26 101 3.0 9.0 0.01 0.05 0.01 93 1030.1
20260506183503 26 99 3.0 9.0 0.00 0.04 0.00 93 1030.1
20260506183004 26 102 3.0 7.0 0.00 0.04 0.00 93 1030.2
20260506182716 26 100 3.0 8.0 0.00 0.04 0.00 93 1030.4
20260506182003 25 102 3.0 9.0 0.00 0.04 0.00 93 1030.2
20260506181503 25 99 4.0 9.0 0.00 0.04 0.00 93 1030.1
20260506181003 24 99 3.0 7.0 0.00 0.04 0.00 93 1030.1
20260506180503 24 92 3.0 8.0 0.00 0.04 0.00 92 1030.1
20260506180221 24 92 3.0 8.0 0.00 0.04 0.00 92 1030.1
20260506175503 24 94 3.0 7.0 0.00 0.04 0.00 92 1030.1
20260506175003 23 93 3.0 7.0 0.00 0.04 0.00 92 1030.0
20260506174720 23 93 3.0 7.0 0.00 0.04 0.00 92 1030.1
20260506174003 23 87 3.0 7.0 0.00 0.04 0.00 92 1030.1
20260506173503 23 88 2.0 7.0 0.00 0.04 0.00 92 1030.1
20260506173003 22 87 2.0 7.0 0.00 0.04 0.00 92 1030.1
20260506172503 22 87 2.0 7.0 0.00 0.04 0.00 92 1030.1
20260506172003 22 89 3.0 7.0 0.00 0.04 0.00 92 1029.9
20260506171503 22 90 3.0 10.0 0.00 0.04 0.00 92 1029.9
20260506171003 22 89 3.0 10.0 0.00 0.04 0.00 92 1029.8
20260506170719 22 90 3.0 8.0 0.00 0.04 0.00 91 1029.7
20260506170217 22 90 2.0 6.0 0.00 0.04 0.00 91 1029.7
20260506165503 21 87 2.0 7.0 0.00 0.04 0.00 91 1029.6
20260506165003 21 88 3.0 7.0 0.00 0.04 0.00 91 1029.4
20260506164503 21 85 3.0 8.0 0.00 0.04 0.00 91 1029.4
20260506164003 21 84 3.0 10.0 0.00 0.04 0.00 91 1029.6
20260506163503 21 85 4.0 10.0 0.00 0.04 0.00 91 1029.4
20260506163004 21 85 4.0 10.0 0.00 0.04 0.00 91 1029.3
20260506162503 22 91 3.0 8.0 0.00 0.04 0.00 91 1029.3
20260506162003 22 91 2.0 9.0 0.00 0.04 0.00 91 1029.0
20260506161503 22 84 2.0 9.0 0.00 0.04 0.00 91 1029.3
20260506161003 22 90 1.0 5.0 0.00 0.04 0.00 91 1029.3
20260506160720 22 90 1.0 3.0 0.00 0.04 0.00 91 1029.3
20260506160003 22 96 1.0 4.0 0.00 0.04 0.00 91 1028.7
20260506155503 22 90 2.0 8.0 0.00 0.04 0.00 91 1028.1
20260506155003 22 86 4.0 11.0 0.00 0.04 0.00 91 1027.5
20260506154503 22 85 5.0 11.0 0.00 0.04 0.00 91 1027.4
20260506154003 22 86 4.0 11.0 0.00 0.04 0.00 91 1027.2
20260506153503 22 87 4.0 11.0 0.00 0.04 0.00 91 1027.1
20260506153003 22 87 3.0 10.0 0.00 0.04 0.00 91 1027.1
20260506152719 23 90 3.0 10.0 0.00 0.04 0.00 91 1027.0
20260506152003 23 99 4.0 8.0 0.00 0.04 0.00 91 1027.0
20260506151503 23 98 4.0 8.0 0.00 0.04 0.00 91 1027.0
20260506151003 23 94 4.0 8.0 0.00 0.04 0.00 91 1027.1
20260506150503 24 95 3.0 8.0 0.00 0.04 0.00 92 1027.1
20260506150219 24 99 3.0 8.0 0.00 0.04 0.00 92 1027.2
20260506145503 24 99 3.0 9.0 0.00 0.04 0.00 92 1027.2
20260506145003 23 103 3.0 9.0 0.00 0.04 0.00 91 1027.2
20260506144503 23 100 3.0 8.0 0.00 0.04 0.00 92 1027.2
20260506144003 23 96 3.0 10.0 0.00 0.04 0.00 92 1027.1
20260506143503 23 95 3.0 10.0 0.00 0.04 0.00 91 1027.1
20260506143003 23 98 3.0 8.0 0.00 0.04 0.00 91 1027.0
20260506142503 23 102 2.0 8.0 0.00 0.04 0.00 92 1027.3
20260506142003 23 88 2.0 4.0 0.00 0.04 0.00 91 1027.4
20260506141503 23 86 2.0 4.0 0.00 0.04 0.00 92 1027.4
20260506141218 23 89 2.0 4.0 0.00 0.04 0.00 92 1027.5
20260506140504 23 90 2.0 4.0 0.00 0.04 0.00 92 1027.4
20260506140004 23 86 3.0 7.0 0.00 0.04 0.00 92 1027.5
20260506135717 23 86 3.0 7.0 0.00 0.04 0.00 92 1027.5
20260506135220 23 85 3.0 8.0 0.00 0.04 0.00 92 1027.4
20260506134503 23 91 4.0 8.0 0.00 0.04 0.00 92 1027.3
20260506134221 23 92 4.0 8.0 0.00 0.04 0.00 92 1027.4
20260506133503 23 87 4.0 8.0 0.00 0.04 0.00 91 1027.3
20260506133003 23 90 3.0 7.0 0.00 0.04 0.00 91 1027.2
20260506132503 23 93 2.0 7.0 0.00 0.04 0.00 92 1027.2
20260506132003 23 91 3.0 6.0 0.00 0.04 0.00 91 1026.9
20260506131503 23 88 2.0 4.0 0.00 0.04 0.00 91 1026.9
20260506131003 23 86 2.0 4.0 0.00 0.04 0.00 91 1027.0
20260506130503 24 85 2.0 3.0 0.00 0.04 0.00 91 1027.0